CAPE
733 897 551 229 58 4 0 0 135 199 237 159 260 220 312 494 122 218 1089 1306 1341 1428 1606 1803 1799 1775 1867 1946 2109 2099 1948 1778 1785 1770 1752 1718 1729 1907 1640 1591 1483 1632 1311 1527 1452 1262 1255 789 254
614 473 279 521 1 0 3 39 17 59 169 269 311 391 431 599 1006 1038 1122 1572 1426 1594 1717 1951 1867 1824 1815 1979 2020 1923 2237 2183 2191 2159 2066 2086 1867 1661 1806 1509 1759 1581 1588 1732 1463 1159 1016 522 287
410 452 689 107 0 0 0 119 89 147 284 377 361 496 545 360 972 929 1475 1580 1690 1793 1800 2132 1927 1951 1904 1906 1937 1888 1972 2107 2094 2053 2068 2042 2060 1762 1703 1248 1401 1494 1640 1523 1581 1295 664 810 707
508 713 537 1 0 0 84 191 230 385 357 260 293 204 581 911 900 1243 1691 1531 1695 1760 1755 2155 2171 2404 1999 2052 2010 2012 2017 1975 1873 2000 1762 1571 1561 1873 1567 1602 1232 1275 1554 1366 1370 1020 864 1032 897
480 247 0 0 5 123 219 354 538 308 304 453 373 263 593 1099 1183 1608 1698 1471 1547 1767 1819 2129 2301 2289 2288 2145 2061 2089 1921 1827 1949 1937 1969 2025 1869 1601 1353 1322 1394 1322 1474 1402 1463 901 1033 836 792
45 0 0 0 11 167 406 535 558 455 446 487 381 562 735 1373 1308 1498 1443 1446 1435 1667 1835 2177 2262 2345 2392 2209 1777 1791 1855 1818 1610 2144 1965 1938 2123 2061 1770 1803 1493 1166 1195 1310 925 883 1476 864 595
168 0 0 0 0 94 222 485 484 293 344 381 584 606 851 999 1190 1371 1363 1549 1682 1767 1979 2246 2291 2396 2533 2395 2152 1927 2010 2097 2143 2167 2124 1850 2067 1868 1605 1786 1934 1681 1177 1092 1329 1106 1255 918 564
171 0 0 0 0 3 211 458 392 269 286 587 678 272 685 881 1036 1236 1352 1600 1724 1831 1928 2053 2268 2213 2209 2200 2374 2248 2079 2169 2237 2219 2147 2146 1987 1714 1678 1846 1690 1792 1800 1222 1073 1190 1435 1144 867
2 0 0 0 0 0 213 341 440 500 520 465 591 742 899 961 1022 1023 1118 1345 1496 1779 1861 1982 2026 2201 2359 2313 2196 2209 2164 2056 1773 2021 1882 1707 1450 1432 1516 1391 1251 1589 1377 1349 1125 708 1022 1453 1422
9 0 0 0 0 1 177 373 348 515 444 626 720 866 940 1062 815 778 919 924 960 1191 1578 1773 1870 1881 2137 1840 2239 2274 2091 1869 1686 1571 1726 1584 1481 1671 1386 1540 1271 1349 1248 1211 1371 1191 625 948 617
0 0 0 0 0 29 129 223 547 431 84 294 277 640 1063 1156 831 839 1320 1042 922 1100 1243 1599 1777 1867 1759 1696 2056 1936 1840 1287 1137 1289 1525 1586 1630 1716 1572 1468 1399 1257 1446 879 855 844 754 897 838
0 0 0 0 0 54 108 181 319 407 140 313 538 655 1089 1162 1186 1044 1275 1478 1132 970 945 1205 1547 1684 1731 1792 1607 1676 1310 347 58 151 703 758 1338 1517 1567 1277 1543 1612 1436 1473 1207 846 888 926 909
0 0 0 0 0 10 6 84 186 336 341 580 691 786 943 1180 1226 1343 1425 1622 1328 949 915 973 1267 1255 1413 1436 1509 1412 1036 488 122 71 233 431 853 961 1270 874 904 1094 954 1444 1225 993 752 544 408
0 0 0 0 0 6 21 28 49 133 524 529 422 573 915 1154 1221 1322 1454 1588 1518 1255 1163 1153 1091 1207 1244 1204 1248 1246 1441 1098 636 105 167 142 296 258 458 766 616 876 1153 932 1088 465 555 643 323
0 0 0 0 0 1 45 28 62 198 447 601 581 624 829 1082 1348 1255 1330 1550 1709 1669 1656 1609 1279 1296 1290 1359 1485 1417 1107 940 831 473 91 44 90 115 127 178 318 602 722 1027 1031 774 445 265 265
0 0 2 0 0 4 63 19 34 178 389 471 656 750 834 1000 1276 1350 1458 1609 1829 1884 1721 1897 1678 1682 1688 1684 1762 1589 1416 1079 806 398 176 35 54 91 96 115 171 535 687 690 691 573 213 188 199
0 0 0 0 23 32 17 46 15 262 434 473 664 765 726 816 1228 1383 1491 1521 1742 1769 1739 1723 1842 2012 1904 1876 1743 1558 1077 676 448 331 307 156 148 43 54 159 225 340 317 275 252 187 126 131 121
0 0 0 0 3 25 21 0 76 174 387 526 747 804 758 639 757 1126 1321 1426 1445 1569 1767 1796 1798 2055 1944 1749 1483 1166 637 356 346 396 371 310 237 221 186 136 210 259 217 215 194 163 192 148 112
0 0 0 0 0 0 0 0 17 109 287 455 715 799 892 677 845 1150 1125 1223 1295 1332 1519 1526 1639 2025 1656 1366 1270 897 603 334 268 226 280 333 344 311 177 154 116 70 24 62 99 191 171 218 261
0 0 0 0 0 0 0 0 3 44 23 157 499 654 729 770 814 1082 1157 1262 1263 1303 1500 1654 1329 1489 1354 1247 1328 1075 363 286 275 260 237 234 232 213 295 332 312 258 162 164 331 246 334 251 200
0 0 0 0 0 0 0 0 0 0 0 37 167 557 749 834 797 1000 1200 1275 1356 1622 924 497 218 420 679 928 1086 649 167 67 92 103 186 241 321 290 197 277 278 210 197 133 629 471 384 179 41
0 0 0 0 0 0 0 0 0 0 0 0 2 105 516 732 839 1034 1192 1437 1588 923 678 216 6 0 159 170 344 942 635 224 108 176 578 763 581 386 444 508 462 463 666 526 444 483 416 355 250
0 0 0 0 0 0 0 0 0 0 0 0 0 1 24 274 586 799 1113 1458 1062 1011 645 458 10 0 0 2 102 638 940 404 150 492 995 1283 1159 1094 964 861 472 532 366 319 335 335 250 270 217
0 0 0 0 0 0 0 0 0 0 0 0 11 28 24 136 317 597 1015 1639 1160 871 359 235 0 0 0 10 133 514 981 672 347 504 988 1069 972 938 741 476 306 224 171 147 160 261 267 218 193
0 0 0 0 0 0 0 0 0 0 0 7 96 232 24 297 423 804 1313 1594 1240 331 82 14 0 182 175 16 0 243 819 379 562 537 365 442 270 338 593 263 190 136 118 42 121 115 155 182 159
0 0 0 0 0 0 0 0 0 0 72 251 294 96 32 318 790 1436 1959 1983 1178 802 281 395 535 423 4 61 40 223 631 351 1112 636 337 103 190 150 218 113 121 96 52 4 7 44 45 137 165
0 0 0 0 0 0 0 0 0 0 27 278 498 405 278 537 893 1333 1596 1818 2233 1241 432 332 693 347 155 384 1152 1229 1233 1031 1041 676 292 133 238 71 28 81 56 40 8 19 119 118 65 160 121
0 0 0 0 0 0 0 0 0 0 0 221 623 716 727 749 876 1064 1086 547 896 1369 2590 1167 1112 572 538 1287 1384 1127 914 628 551 379 215 167 235 260 212 139 39 15 8 4 42 44 21 82 84
0 0 0 0 0 0 0 0 0 0 21 433 773 1065 1190 1171 1150 892 710 490 505 1230 1964 1670 1476 1303 1140 1018 817 564 187 68 402 298 367 401 413 400 201 52 2 0 0 0 0 0 4 55 107
0 0 0 0 0 0 0 0 0 0 59 599 889 1253 1037 408 493 712 410 325 308 903 1136 1485 1390 1099 1024 846 627 200 56 214 289 348 375 396 319 280 79 17 3 0 0 0 0 0 0 19 29
CIN
-134 -114 -108 -141 -172 -203 0 0 -51 -31 -32 -80 -49 -41 -37 -65 -74 -40 -67 -25 -26 -16 -2 0 -3 -11 -10 -8 -2 -1 -5 -10 -11 -6 -2 0 0 0 0 0 -1 0 0 0 0 0 0 -1 -21
-188 -198 -170 -105 -9 0 -102 -108 -141 -148 -110 -58 -43 -49 -45 -45 -64 -74 -53 -15 -18 -10 -1 0 -2 -2 -8 -3 -2 -2 0 0 0 0 0 0 -1 -3 0 0 0 0 0 0 0 0 0 -7 -13
-257 -200 -118 -153 0 0 0 -82 -130 -140 -99 -50 -41 -52 -44 -83 -84 -89 -55 -34 -8 -5 -3 0 -3 -1 -1 -3 -1 -1 -1 0 0 0 0 0 0 -2 0 -10 -3 -3 0 0 0 0 -3 0 -1
-253 -185 -182 -2 0 0 -85 -94 -99 -67 -76 -103 -77 -80 -68 -69 -79 -74 -62 -56 -25 -19 -13 -1 -2 0 -1 0 0 0 -1 -3 -2 0 -1 -10 -12 0 -5 -2 -7 -4 0 0 0 0 -1 0 0
-286 -319 0 0 -91 -90 -101 -95 -79 -95 -111 -82 -101 -119 -75 -50 -84 -75 -81 -74 -47 -28 -16 0 -1 -1 0 0 0 0 -4 -8 -3 -1 0 0 0 -3 -10 -7 -8 -4 -1 0 0 0 0 -5 -9
-390 0 0 0 -91 -102 -91 -89 -79 -87 -129 -126 -117 -80 -73 -58 -80 -81 -96 -76 -54 -36 -11 0 -1 -1 -1 -1 -6 -8 -9 -11 -11 0 0 0 0 0 -2 0 -5 -11 -4 -1 -3 -1 0 -1 -20
-256 0 0 0 0 -100 -105 -111 -87 -120 -158 -146 -128 -101 -100 -97 -112 -90 -103 -64 -41 -24 -10 -1 0 0 0 0 -3 -7 -2 0 0 0 0 -3 0 -1 -3 -1 0 0 -5 -5 0 -1 0 0 -11
-295 0 0 0 -4 -22 -107 -98 -112 -128 -142 -177 -157 -162 -116 -133 -172 -123 -91 -43 -34 -19 -9 -7 -1 0 0 0 0 0 0 0 0 0 0 0 0 0 -1 0 -1 0 0 -5 -3 -1 0 0 -2
-51 0 0 0 0 0 -127 -105 -149 -167 -154 -175 -183 -161 -133 -175 -192 -176 -136 -83 -68 -37 -27 -14 -11 -7 0 0 0 -1 0 0 -1 0 0 0 -1 0 0 -1 -8 0 0 -2 -5 -7 -4 0 0
-203 0 0 0 0 -20 -93 -113 -122 -122 -144 -144 -181 -219 -199 -198 -236 -200 -159 -120 -136 -112 -71 -39 -21 -16 -2 -1 0 0 0 0 0 0 0 -1 0 0 0 0 -4 0 0 0 0 -3 -7 -3 0
0 0 0 0 0 -119 -96 -118 -126 -110 -114 -117 -135 -238 -217 -190 -242 -221 -132 -126 -122 -110 -104 -89 -49 -30 -20 -11 0 -1 -10 -44 -16 -1 0 0 0 0 0 0 0 0 -1 -1 -2 -1 -1 0 0
0 0 0 0 -16 -134 -124 -144 -120 -130 -84 -127 -170 -227 -229 -205 -198 -207 -152 -107 -123 -138 -128 -105 -90 -56 -34 -18 -19 -14 -27 -61 -110 -60 -2 -3 -1 0 0 0 0 0 -1 0 0 0 -1 -2 -3
0 0 0 0 0 -181 -158 -154 -125 -143 -147 -148 -182 -254 -224 -191 -168 -170 -136 -101 -120 -137 -131 -126 -121 -110 -71 -57 -40 -30 -36 -62 -107 -68 -55 -32 -6 -2 0 -17 -10 -8 -8 0 0 -5 -15 -25 -27
0 0 0 0 0 -232 -189 -203 -224 -133 -197 -192 -209 -226 -214 -187 -158 -173 -173 -128 -117 -125 -119 -110 -126 -116 -102 -84 -72 -47 -20 -11 -31 -73 -40 -42 -45 -37 -35 -10 -20 -12 -7 -11 -4 -30 -29 -19 -38
0 0 0 0 0 -63 -233 -188 -145 -170 -218 -184 -205 -223 -215 -205 -177 -176 -163 -145 -116 -105 -105 -91 -122 -118 -106 -79 -55 -51 -55 -42 -21 -22 -25 -34 -27 -35 -57 -65 -35 -21 -21 -11 -6 -14 -37 -59 -59
0 0 -7 0 -12 -79 -188 -49 -110 -209 -187 -191 -207 -199 -238 -207 -193 -186 -178 -158 -148 -115 -110 -97 -97 -97 -81 -71 -48 -50 -38 -30 -22 -28 -14 -23 -16 -25 -46 -62 -37 -19 -20 -15 -11 -20 -53 -63 -62
0 0 0 0 -115 -137 -167 -65 -88 -242 -179 -173 -203 -196 -209 -202 -209 -204 -198 -175 -141 -134 -107 -98 -98 -83 -75 -66 -67 -62 -69 -86 -72 -61 -10 -2 -4 -21 -42 -36 -21 -27 -32 -41 -40 -56 -81 -76 -82
0 0 0 0 -23 -128 -104 0 -127 -211 -201 -173 -203 -212 -194 -175 -184 -212 -220 -177 -171 -160 -116 -97 -99 -79 -77 -82 -96 -95 -120 -134 -112 -66 -19 -4 0 -4 -15 -37 -26 -33 -32 -30 -46 -54 -39 -57 -58
0 0 0 0 0 0 0 0 -142 -180 -203 -184 -223 -226 -205 -145 -135 -193 -231 -209 -193 -169 -132 -114 -104 -86 -81 -107 -85 -116 -108 -155 -120 -162 -98 -16 0 0 -32 -31 -36 -53 -78 -65 -53 -26 -26 -20 -16
0 0 0 0 0 0 0 0 -105 -105 -191 -180 -204 -261 -223 -192 -170 -171 -211 -247 -219 -149 -137 -109 -106 -105 -33 -75 -83 -90 -174 -155 -154 -119 -143 -99 -53 -12 -12 -25 -16 -14 -27 -28 -7 -11 -1 -10 -17
0 0 0 0 0 0 0 0 0 0 -64 -288 -280 -273 -322 -244 -203 -162 -176 -192 -189 -196 -279 -261 -236 -155 -87 -89 -57 -103 -228 -264 -211 -189 -155 -119 -58 -53 -56 -25 -24 -37 -28 -26 0 -1 0 -13 -55
0 0 0 0 0 0 0 0 0 0 0 0 -335 -284 -346 -310 -294 -191 -162 -196 -191 -379 -389 -445 -73 0 -137 -202 -163 -53 -60 -105 -157 -132 -69 -49 -42 -41 -26 -16 -15 -15 0 -3 -2 0 0 -3 -22
0 0 0 0 0 0 0 0 0 0 0 0 0 -108 -353 -405 -332 -258 -200 -222 -425 -377 -425 -365 -223 0 0 -50 -271 -116 -51 -114 -160 -83 -28 -9 -6 0 0 -1 -9 -8 -14 -3 0 0 -1 -4 0
0 0 0 0 0 0 0 0 0 0 0 0 -62 -324 -370 -388 -418 -385 -333 -298 -383 -400 -470 -459 0 0 0 -464 -330 -135 -61 -67 -107 -65 -15 -13 -9 -9 -7 -14 -21 -16 -13 -16 -7 0 0 0 0
0 0 0 0 0 0 0 0 0 0 0 -100 -186 -245 -351 -359 -419 -448 -394 -277 -355 -464 -279 -367 -48 -117 -314 -440 0 -233 -66 -117 -69 -25 -20 -20 -57 -48 -20 -44 -39 -35 -36 -69 -21 -7 -1 -2 0
0 0 0 0 0 0 0 0 0 0 -219 -248 -354 -346 -330 -368 -430 -389 -257 -200 -373 -315 -262 -477 -335 -197 -353 -346 -352 -248 -84 -125 -3 -11 -15 -28 -40 -63 -68 -73 -47 -46 -75 0 -11 -39 -26 -1 0
0 0 0 0 0 0 0 0 0 0 -94 -189 -271 -295 -317 -457 -510 -390 -320 -280 -108 -195 -433 -345 -314 -338 -355 -301 -125 -49 -38 -32 -3 -16 -40 -52 -46 -75 -82 -36 -35 -68 -2 -33 -40 -39 -37 -1 -1
0 0 0 0 0 0 0 0 0 0 0 -162 -172 -250 -416 -539 -484 -397 -416 -522 -379 -178 -48 -232 -239 -326 -276 -192 -71 -42 -65 -52 -61 -45 -32 -32 -38 -20 -7 -11 -34 -42 -5 -4 -54 -55 -32 -9 -2
0 0 0 0 0 0 0 0 0 0 -114 -122 -172 -279 -376 -421 -393 -406 -430 -486 -380 -244 -103 -109 -122 -150 -166 -163 -125 -145 -214 -276 -109 -85 -32 -20 -9 -7 -28 -67 -9 0 0 0 0 0 -46 -29 -4
0 0 0 0 0 0 0 0 0 0 -196 -200 -197 -335 -431 -541 -522 -459 -512 -436 -299 -244 -188 -98 -175 -186 -143 -187 -169 -238 -264 -203 -122 -82 -46 -8 -22 -4 -38 -121 -114 0 0 0 0 0 0 -79 -49
Wind_Speed
24 20 17 18 27 29 34 29 24 27 23 21 21 20 20 19 17 18 22 21 23 23 21 21 19 19 18 18 16 15 16 18 20 21 22 23 23 21 15 9 7 10 11 8 9 9 12 7 5
23 21 19 23 31 37 36 27 30 25 26 26 25 22 21 20 18 24 23 22 24 23 21 21 20 19 19 18 17 17 18 19 21 20 23 24 22 22 22 16 10 11 12 6 7 8 9 7 6
24 21 22 25 30 36 35 30 30 29 24 21 22 22 21 22 24 25 22 24 23 22 21 20 20 20 20 19 19 19 21 22 21 22 21 21 20 20 21 19 14 17 20 22 17 7 11 5 5
22 20 22 30 33 30 30 28 28 26 23 25 26 25 23 20 23 22 24 25 24 22 21 20 20 20 20 19 19 20 21 22 23 23 22 20 19 20 20 20 21 19 22 22 24 7 13 8 5
20 20 27 30 31 29 28 27 25 28 25 23 23 25 24 20 21 23 24 24 23 22 20 19 19 19 19 19 18 19 19 20 20 22 20 20 20 19 19 19 19 21 22 23 22 21 17 17 10
19 19 27 30 28 27 26 24 25 25 24 24 26 26 22 21 23 24 24 23 21 20 19 19 18 17 16 18 18 16 17 16 19 18 17 17 18 19 19 20 21 20 21 22 23 23 20 22 18
20 23 26 25 26 25 24 23 24 25 25 24 24 24 21 21 23 24 23 21 20 19 19 18 18 16 14 14 16 15 15 15 16 19 19 18 17 21 19 19 21 21 21 20 22 23 24 25 25
19 20 21 22 21 22 22 22 22 23 23 23 21 20 21 21 23 23 22 20 19 18 17 17 18 19 18 16 15 14 13 14 14 18 19 22 23 22 20 11 14 22 22 22 21 24 24 22 22
17 18 19 19 19 20 20 20 20 17 20 20 19 19 20 24 23 22 21 20 19 18 17 16 17 18 18 17 14 12 9 9 14 20 24 22 23 23 20 15 9 14 23 23 23 18 17 17 20
16 18 17 15 14 15 17 18 18 18 19 17 18 19 23 23 22 21 20 19 18 18 18 17 17 17 18 17 16 13 9 8 12 15 25 26 22 24 24 23 24 23 23 23 22 17 13 7 14
15 15 10 11 13 13 14 14 16 16 15 14 16 19 22 22 20 19 18 18 18 18 18 18 18 18 17 16 15 14 11 7 17 22 5 3 19 21 26 25 25 24 20 22 18 19 18 16 14
11 10 10 11 12 13 13 13 12 13 13 14 16 19 20 20 19 18 18 17 17 17 18 18 17 17 16 15 14 13 10 11 16 29 27 29 27 22 28 27 27 24 25 24 22 19 19 16 15
7 9 8 9 9 8 11 10 10 10 11 14 15 16 16 17 17 16 16 16 16 16 16 17 17 16 15 14 13 12 10 9 11 6 16 24 23 30 31 31 29 28 25 12 19 17 18 17 16
10 5 19 20 4 7 8 9 8 9 11 12 13 14 15 16 16 15 15 15 15 15 16 16 16 15 14 13 12 11 9 7 6 6 13 25 23 32 31 31 30 13 6 14 7 8 18 22 20
13 12 16 16 20 12 10 8 8 8 10 11 11 13 15 15 15 15 15 15 15 14 14 14 14 14 13 12 11 10 8 6 6 9 7 23 21 36 34 31 29 19 11 10 14 13 14 22 25
11 12 14 14 12 15 9 7 8 8 8 8 10 11 13 14 14 15 14 13 14 13 13 12 12 12 13 11 10 8 7 6 5 7 11 21 20 20 36 33 31 14 10 11 12 10 16 15 25
11 8 13 14 11 14 11 12 21 6 5 5 9 10 11 13 13 15 15 12 11 11 11 11 10 10 10 11 10 9 8 7 8 9 10 17 19 19 8 9 20 17 15 17 17 18 17 22 19
9 11 13 12 13 13 12 14 4 14 3 13 8 12 10 11 14 14 14 12 10 8 8 8 8 7 8 10 10 11 10 10 10 12 12 15 19 17 25 26 7 11 16 19 20 20 18 25 19
14 13 13 13 14 16 16 20 24 5 29 19 7 11 12 12 12 9 11 11 9 6 6 5 5 8 8 9 9 9 10 10 10 12 14 15 19 20 3 2 5 11 14 20 23 24 25 19 13
14 16 15 18 16 12 14 6 20 8 21 22 12 8 13 11 15 6 8 7 6 4 8 13 17 15 18 21 7 9 10 10 11 11 12 14 14 19 12 2 6 13 20 23 25 24 18 14 8
15 16 16 15 15 12 19 21 21 22 27 26 17 5 13 11 14 9 4 3 2 6 10 14 18 17 19 14 6 8 12 11 9 9 10 11 12 12 9 8 17 20 23 23 16 15 12 15 10
17 18 15 16 14 19 16 21 22 24 25 24 24 2 6 5 9 11 7 3 4 7 11 11 14 9 9 13 7 5 3 6 6 8 8 9 8 9 8 7 10 16 16 18 13 13 15 13 17
17 18 19 18 13 17 14 17 24 21 25 25 23 17 4 5 9 14 9 1 5 8 5 9 7 20 5 9 8 4 4 4 7 7 7 9 8 8 7 8 10 13 15 16 15 11 13 15 13
16 19 18 15 12 17 15 16 31 22 21 27 20 27 15 4 6 7 4 6 7 5 1 7 13 22 15 5 6 5 4 4 7 5 5 7 9 9 9 11 12 15 18 17 15 11 12 16 13
15 15 18 15 15 17 18 17 24 25 25 28 33 27 17 6 4 4 3 4 2 3 10 8 10 19 23 9 8 7 5 4 5 6 5 5 4 6 7 13 15 17 16 16 16 15 17 17 17
14 14 17 18 18 18 17 16 23 21 25 28 28 22 15 7 6 9 8 5 8 6 1 6 6 7 7 8 8 7 8 7 7 6 7 6 8 4 8 18 17 15 15 14 16 16 17 18 17
15 15 16 14 16 17 19 23 29 24 23 26 26 20 14 12 12 10 9 8 6 5 6 6 5 1 10 10 10 11 10 10 9 9 10 10 9 7 8 14 14 15 16 15 14 15 16 18 18
18 11 15 16 18 20 18 22 26 26 23 19 19 15 14 12 11 11 9 9 9 7 3 2 4 17 12 12 14 14 14 13 14 16 17 16 15 10 9 13 14 15 14 15 16 16 17 17 17
14 17 17 16 18 22 22 20 14 20 17 15 13 13 12 10 10 12 12 11 12 15 13 4 22 21 14 14 16 16 16 16 18 18 18 18 18 14 11 11 13 15 15 16 16 17 17 17 16
16 14 15 18 17 17 19 20 17 15 14 14 14 13 13 13 12 11 12 12 12 17 22 26 26 21 17 15 16 17 17 18 18 18 18 17 16 15 14 13 13 14 15 16 15 15 15 15 16
Wind_Direction
129 132 132 114 81 79 66 75 91 90 94 97 96 87 83 85 91 83 107 114 112 108 103 106 99 95 92 87 77 72 72 83 92 97 107 117 118 105 61 9 292 249 242 6 18 25 48 12 316
126 124 114 95 76 61 62 84 71 93 90 86 78 88 80 87 111 107 104 110 114 111 107 107 104 101 97 95 90 85 89 93 98 93 104 123 119 120 133 208 245 237 227 338 5 14 23 12 31
119 120 100 84 75 57 63 76 80 88 96 95 89 92 96 99 101 107 107 111 111 112 109 109 108 106 105 103 103 103 110 117 113 110 109 117 104 106 113 140 228 200 173 157 110 2 42 352 265
121 115 98 72 65 74 74 88 86 88 96 90 86 83 98 107 100 112 109 117 116 117 114 112 112 109 115 112 113 115 124 128 143 140 130 119 106 107 102 102 120 187 165 159 141 358 59 38 26
130 110 79 72 69 75 83 91 92 79 95 95 93 90 94 110 105 104 111 118 117 118 117 116 117 112 113 119 116 122 121 125 132 145 134 128 132 130 126 113 108 144 166 147 134 120 88 90 66
111 113 73 66 73 78 84 91 88 85 96 97 89 91 99 108 106 107 110 117 115 111 114 118 120 113 107 122 121 115 120 118 135 132 125 121 134 148 141 148 158 145 146 175 153 141 122 120 102
78 78 71 75 79 78 82 91 80 80 83 87 101 89 103 111 112 110 111 111 110 109 113 117 122 117 106 108 123 118 121 117 129 153 156 147 147 187 166 152 172 174 168 211 182 163 167 169 176
105 87 75 80 79 77 83 85 83 85 85 99 107 90 100 115 114 109 109 110 109 110 110 115 122 134 131 121 123 120 122 129 128 159 159 185 213 219 249 312 271 202 186 205 212 180 190 213 216
131 80 71 70 77 78 90 84 87 115 101 105 109 101 105 109 112 109 107 111 114 117 116 114 124 128 130 130 118 115 102 110 148 181 220 249 231 229 253 279 319 230 210 205 214 248 245 252 238
89 70 67 92 98 91 99 89 86 99 101 108 108 97 104 110 115 113 112 112 119 123 125 122 127 130 131 129 128 113 85 7 325 306 239 229 256 244 231 230 215 222 224 222 229 265 278 315 272
75 68 117 123 105 104 99 111 108 90 105 119 108 104 112 118 116 119 117 119 122 125 128 133 130 131 133 129 126 124 93 37 306 276 341 311 274 265 231 218 204 186 159 236 249 251 258 271 285
76 120 119 129 102 90 95 97 98 116 104 116 107 110 115 122 117 121 123 121 122 129 134 140 134 134 129 123 127 127 108 86 329 223 263 247 252 265 210 210 207 187 199 215 242 257 260 277 289
78 85 123 177 127 102 91 114 103 142 102 97 96 112 118 125 125 124 126 124 121 128 134 141 139 133 128 127 124 127 126 116 129 124 290 264 270 244 229 224 217 205 194 134 259 270 268 278 293
25 71 241 320 209 108 119 115 94 123 97 87 106 122 130 134 130 127 130 132 131 131 138 138 145 138 128 131 133 139 126 135 145 142 178 243 266 241 236 232 229 284 312 282 325 322 277 265 281
354 3 357 331 329 29 95 137 156 112 106 110 118 135 138 143 140 140 136 134 136 137 133 133 137 141 133 135 139 141 132 128 171 182 166 197 184 236 221 239 240 270 287 298 288 298 302 275 265
351 354 355 5 33 353 76 50 76 106 104 124 131 144 145 148 153 152 147 141 143 138 138 129 127 135 142 136 133 126 128 110 125 170 175 196 181 177 220 216 224 286 289 294 297 307 298 310 276
341 352 348 355 11 359 5 6 333 66 111 111 149 148 152 156 159 164 161 150 143 137 137 138 128 122 130 133 111 98 93 103 101 113 146 167 159 161 206 168 267 278 282 283 288 290 298 292 304
323 333 336 342 354 352 355 222 11 340 17 191 158 171 158 164 174 169 165 160 153 145 135 133 119 104 92 104 95 71 69 77 92 97 124 163 153 155 176 190 289 279 278 277 284 289 298 286 303
314 317 321 328 334 332 335 234 250 9 257 207 179 181 184 181 176 162 165 166 161 114 100 86 79 129 119 90 91 85 66 66 82 86 95 116 155 153 95 336 299 287 284 281 280 282 280 297 315
307 304 307 313 325 345 340 343 241 204 228 215 196 199 193 191 195 178 167 169 158 71 32 22 358 348 309 240 106 60 62 67 66 78 84 100 113 160 134 34 305 291 282 278 274 278 296 306 327
305 297 300 302 322 330 332 328 328 253 250 230 209 208 194 192 199 195 194 185 42 29 35 12 13 354 329 198 118 51 32 41 54 67 72 96 109 107 116 125 284 279 272 277 295 300 309 307 321
302 305 297 297 310 315 329 325 318 287 278 249 233 195 203 203 216 204 206 323 47 89 75 48 347 69 159 192 176 164 114 63 71 40 54 46 62 105 80 357 319 292 292 290 309 312 305 309 299
305 311 306 299 297 312 318 320 304 326 305 298 325 344 326 213 202 196 196 171 137 146 101 82 109 24 163 198 197 162 142 108 58 46 54 24 11 352 20 7 333 310 307 304 307 325 313 304 310
310 308 310 307 302 302 313 317 284 313 315 303 336 331 352 12 165 176 147 141 155 146 115 29 38 19 320 97 130 140 145 119 41 73 71 13 350 339 338 323 332 316 302 305 311 328 324 302 316
300 304 301 294 293 299 309 312 303 304 306 306 301 326 344 28 87 62 76 130 162 310 5 33 43 28 329 85 136 143 139 111 99 121 67 39 39 349 359 303 312 312 310 303 307 311 308 306 309
289 297 295 295 293 302 313 316 310 315 305 306 315 326 345 58 69 14 25 81 125 139 329 134 68 30 44 69 155 148 143 101 110 100 92 91 128 34 343 282 304 312 309 315 308 308 310 307 311
285 291 302 313 315 312 312 309 300 312 311 305 304 324 346 350 3 25 50 66 98 141 151 168 117 127 118 83 117 128 118 102 89 78 89 90 59 12 347 299 304 303 299 313 314 315 311 307 307
277 289 300 304 304 305 314 311 308 305 316 318 317 336 347 2 21 34 52 68 62 43 43 190 147 186 115 81 105 114 98 94 70 71 80 86 79 62 336 294 295 298 311 314 305 305 309 311 312
282 280 292 301 304 305 309 316 325 313 338 353 348 350 8 24 32 34 53 58 35 18 6 11 164 153 98 88 101 95 92 88 83 78 87 91 95 71 310 332 320 303 306 310 308 308 310 313 311
292 292 293 295 304 307 308 309 325 328 336 344 341 346 353 1 14 31 33 46 56 57 65 166 134 128 108 74 75 71 86 75 88 89 87 94 79 78 56 1 334 332 320 315 321 319 311 313 314